User: anonymous   Login
Location: Newark
(41.6478°N, 9.0078°E)
Time: 20:09:02
(UTC+00:00)
Language:

DELFI C3 - Orbit

View from above orbital plane
View from above orbital plane
View from above satellite
View from above satellite

Ground track
Ground track

The orbit data is extracted from the following two-line orbital elements,

1 32789U 08021G   20020.59059280 +.00000866 +00000-0 +61114-4 0  9999
2 32789 097.4391 068.4622 0013696 105.6200 254.6540 15.07400057639385
Epoch (UTC): 20 January 2020 14:10:27
Eccentricity: 0.0013696
inclination: 97.4391°
perigee height: 534 km
apogee height: 553 km
right ascension of ascending node: 68.4622°
argument of perigee: 105.6200°
revolutions per day: 15.07400057
mean anomaly at epoch: 254.6540°
orbit number at epoch: 63938

The dashed part of the orbit path shows where the satellite is in the earth's shadow,  

DLR